Location: Baix
(44.7118°N, 4.7648°E)
Time: 02:02:44
(UTC+00:00)

H-2A R/B - Pass Details

Date: 07 August 2020
Orbit: 578 x 654 km, 98.5° (Epoch: 27 September)

Event Time Altitude Azimuth Distance (km) Brightness Sun altitude
Rises 03:43:18 0° 184° (S) 2,811 5.1 -8.8°
Reaches altitude 10° 03:45:35 10° 192° (SSW) 1,906 4.2 -8.4°
Maximum altitude 03:49:26 38° 261° (W) 897 2.5 -7.9°
Drops below altitude 10° 03:53:17 10° 330° (NNW) 1,903 4.6 -7.3°
Sets 03:55:34 0° 339° (NNW) 2,806 5.6 -6.9°
